Preview of NWS' New Version of Forecast
This preview is not operational and should not be used for support decisions.

Regional Weather Roundup (RWR)

Issued by Gray - Portland, ME (GYX)

                            
000
ASUS41 KGYX 160010
RWRGYX
WEATHER ROUNDUP FOR MAINE AND NEW HAMPSHIRE
NATIONAL WEATHER SERVICE GRAY ME
800 PM EDT MON OCT 15 2018

MEZ002-005-006-010-012-015-018-020-021-024-026-027-029-160100-
MAINE
  
CITY           SKY/WX    TMP DP  RH WIND       PRES   REMARKS
PORTLAND       CLOUDY    60  59  96 S6        29.73F FOG              
6HR MIN TEMP:  53; 6HR MAX TEMP:  60; 6HR PCP:  0.14;                

SANFORD        LGT RAIN  58  58 100 SW8       29.73F                  
BAR HARBOR     LGT RAIN  58  57  97 S21G30    29.75  FOG              
WISCASSET      CLOUDY    60  59  96 SW12G20   29.75F                  
6HR MIN TEMP:  52; 6HR MAX TEMP:  60; 6HR PCP:  0.20;                

ROCKLAND       CLOUDY    59  58  96 SW15G24   29.75F                  
FRYEBURG       CLOUDY    46  45  96 CALM      29.73F                  
6HR MIN TEMP:  44; 6HR MAX TEMP:  46; 6HR PCP:  0.15;                

LEWISTONAUBURN CLOUDY    57  57 100 S9        29.71F                  
AUGUSTA        LGT RAIN  57  57 100 S10G28    29.70F FOG              
6HR MIN TEMP:  50; 6HR MAX TEMP:  57; 6HR PCP:  0.13;                

BANGOR         LGT RAIN  57  56  96 S16G26    29.72F FOG              
6HR MIN TEMP:  52; 6HR MAX TEMP:  57; 6HR PCP:  0.19;                

GREENVILLE       N/A     50  49  96 S10G22    29.64F                  
6HR MIN TEMP:  44; 6HR MAX TEMP:  50; 6HR PCP:  0.23;                

MILLINOCKET    LGT RAIN  53  51  93 VRB5      29.68F FOG              
6HR MIN TEMP:  49; 6HR MAX TEMP:  53; 6HR PCP:  0.14;                

HOULTON        LGT RAIN  52  52 100 S13G28    29.65F FOG              
6HR MIN TEMP:  49; 6HR MAX TEMP:  55; 6HR PCP:  0.16;                

PRESQUE ISLE   LGT RAIN  49  48  97 S10       29.63F                  
6HR MIN TEMP:  47; 6HR MAX TEMP:  55; 6HR PCP:  0.14;                

FRENCHVILLE    RAIN      49  45  86 S18G29    29.59F FOG              
6HR MIN TEMP:  47; 6HR MAX TEMP:  57; 6HR PCP:  0.15;                

CARIBOU        LGT RAIN  50  47  89 S15G22    29.61F FOG              
6HR MIN TEMP:  47; 6HR MAX TEMP:  55; 6HR PCP:  0.21;                

$$

NHZ002-005-008-009-011-012-014-160100-
NEW HAMPSHIRE
  
CITY           SKY/WX    TMP DP  RH WIND       PRES   REMARKS
PORTSMOUTH     LGT RAIN  62  60  92 S7        29.72F                  
ROCHESTER      CLOUDY    53  53 100 CALM      29.73F FOG              
6HR MIN TEMP:  49; 6HR MAX TEMP:  54; 6HR PCP: TRACE;                

MANCHESTER     CLOUDY    62  59  90 S10       29.72F                  
6HR MIN TEMP:  50; 6HR MAX TEMP:  62; 6HR PCP: TRACE;                

CONCORD        LGT RAIN  55  55 100 SE5       29.73F                  
6HR MIN TEMP:  48; 6HR MAX TEMP:  55; 6HR PCP: TRACE;                

LACONIA        CLOUDY    51  51 100 SW3       29.72F FOG              
PLYMOUTH       CLOUDY    44  43  98 CALM      29.73F FOG              
BERLIN         CLOUDY    51  50  96 CALM      29.66F                  
6HR MIN TEMP:  45; 6HR MAX TEMP:  53; 6HR PCP:  0.02;                

WHITEFIELD     CLOUDY    50  49  96 CALM      29.66F                  
6HR MIN TEMP:  44; 6HR MAX TEMP:  50; 6HR PCP: TRACE;                

JAFFREY        LGT RAIN  60  59  96 SW12G26   29.76F                  
6HR MIN TEMP:  54; 6HR MAX TEMP:  60; 6HR PCP:  0.01;                

KEENE          LGT RAIN  60  58  92 S12       29.75F                  
LEBANON        LGT RAIN  58  53  84 SW6       29.69F                  
6HR MIN TEMP:  46; 6HR MAX TEMP:  58; 6HR PCP:  0.01;                

MT WASHINGTON  NOT AVBL                                               
$$

VTZ005-007-008-160100-
VERMONT
  
CITY           SKY/WX    TMP DP  RH WIND       PRES   REMARKS
ST JOHNSBURY     N/A     52  52 100 MISG      29.65F                  
MONTPELIER     LGT RAIN  53  53 100 S9        29.69F                  
BURLINGTON     LGT RAIN  57  54  89 SW10      29.69R                  
$$

MAZ007-012-024-CTZ003-RIZ002-NYZ038-NYZ072-160100-
SOUTHERN NEW ENGLAND AND NY
  
CITY           SKY/WX    TMP DP  RH WIND       PRES   REMARKS
BOSTON         CLOUDY    67  61  81 SW17      29.78F                  
WORCESTER      LGT RAIN  60  59  96 SW18G26   29.79F                  
NANTUCKET      CLOUDY    65  63  93 S17       29.90F                  
PROVIDENCE     CLOUDY    66  64  93 SW13G21   29.84F                  
HARTFORD       LGT RAIN  62  60  93 S9        29.81F                  
ALBANY         CLOUDY    61  57  87 S10       29.74F                  
NEW YORK CITY  CLOUDY    68  62  81 SW15      29.88S                  
$$

ANZ081-ANZ082-ANZ150-NHZ014-MEZ023>029-160100-
COASTAL MARINE OBSERVATIONS
  
STATION/POSITION TIME  TEMP    WIND        PRES    WAVE
                       AIR SEA DIR/SP/G            HT/PER
                 (UTC) (F)     (DEG/KT/KT) (MB)    (FT/S)
MOUNT DESERT ROC 0000   57     160/ 34/ 38 1008.2F
MATINICUS ROCK   2300   57     180/ 33/ 35 1008.1F
ISLE OF SHOALS   2300   61     200/ 23/ 25 1008.2F
JEFFREYS LEDGE   2306      56                N/A     6/ 6
$$

.............KEY..............
   WCI - WIND CHILL
   TC  - TEMPERATURE IN CELSIUS
   VSB - VISIBILITY IN MILES
   HX  - HEAT INDEX
   FAIR- INDICATES FEW OR NO CLOUDS BELOW 12,000 FT, WITH NO 
         SIGNIFICANT WEATHER AND/OR OBSTRUCTIONS TO VISIBILITY.